Gaithersburg, MD

2:50 AM EDT on March 29, 2017 (GMT -0400)
Montgomery County

Weather History for KGAI - November, 2013

Change the Weather History Date:

Friday, November 1, 2013

  Actual Average (KCGS) Record (KCGS)
Temperature  
Mean Temperature 63 °F -  
Max Temperature 71 °F 64 °F 86 °F (1950)
Min Temperature 55 °F 44 °F 24 °F (1954)
Degree Days  
Heating Degree Days 2    
Growing Degree Days 13 (Base 50)    
Moisture  
Dew Point 57 °F    
Average Humidity 76    
Maximum Humidity 94    
Minimum Humidity 53    
Precipitation  
Precipitation 0.12 in - - ()
Sea Level Pressure  
Sea Level Pressure 29.68 in    
Wind  
Wind Speed 8 mph (SSW)    
Max Wind Speed 18 mph    
Max Gust Speed 28 mph    
Visibility 10 miles    
Events      
Averages and records for this station are not official NWS values.
T = Trace of Precipitation, MM = Missing Value Source: NWS Daily Summary

Daily Weather History Graph

Daily Weather History Graph

Search for Another Location

Airport or City:

Trip Planner

Search our weather history database for the weather conditions in past years. The results will help you decide how hot, cold, wet, or windy it might be!

Date:

Astronomy

Nov. 01, 2013 Rise Set
Actual Time 7:36 AM EDT 6:07 PM EDT
Civil Twilight 7:08 AM EDT 6:35 PM EDT
Nautical Twilight 6:37 AM EDT 7:06 PM EDT
Astronomical Twilight 6:05 AM EDT 7:37 PM EDT
Moon 5:27 AM EDT (11/1) 4:58 PM EDT (11/1)
Length of Visible Light 11h 26m
Length of Day
10h 30m
Waning Crescent, 4% of the Moon is Illuminated
Nov 1
Waning Crescent
Nov 3
New
Nov 10
First Quarter
Nov 17
Full
Nov 25
Last Quarter

Hourly Weather History & Observations

Time (EDT) Temp. Dew Point Humidity Pressure Visibility Wind Dir Wind Speed Gust Speed Precip Events Conditions
12:15 AM 64.4 °F 55.4 °F 73% 29.80 in 10.0 mi South 9.2 mph - N/A   Partly Cloudy
12:35 AM 64.4 °F 55.4 °F 73% 29.79 in 10.0 mi South 9.2 mph - N/A   Scattered Clouds
12:55 AM 64.4 °F 55.4 °F 73% 29.77 in 10.0 mi South 8.1 mph - N/A   Mostly Cloudy
1:15 AM 64.4 °F 55.4 °F 73% 29.76 in 10.0 mi South 11.5 mph - N/A   Scattered Clouds
1:35 AM 64.4 °F 55.4 °F 73% 29.75 in 10.0 mi South 11.5 mph 17.3 mph N/A   Partly Cloudy
1:55 AM 66.2 °F 55.4 °F 68% 29.73 in 10.0 mi South 10.4 mph 21.9 mph N/A   Clear
2:15 AM 66.2 °F 57.2 °F 73% 29.73 in 10.0 mi SSE 10.4 mph 20.7 mph N/A   Clear
2:35 AM 66.2 °F 57.2 °F 73% 29.71 in 10.0 mi SSE 11.5 mph 20.7 mph N/A   Partly Cloudy
2:55 AM 66.2 °F 57.2 °F 73% 29.71 in 10.0 mi SSE 11.5 mph 17.3 mph N/A   Mostly Cloudy
3:15 AM 66.2 °F 57.2 °F 73% 29.70 in 10.0 mi South 12.7 mph 21.9 mph N/A   Overcast
3:35 AM 66.2 °F 59.0 °F 78% 29.70 in 10.0 mi South 9.2 mph 24.2 mph N/A   Overcast
3:55 AM 66.2 °F 59.0 °F 78% 29.67 in 10.0 mi South 9.2 mph 17.3 mph N/A   Overcast
4:15 AM 66.2 °F 60.8 °F 83% 29.67 in 10.0 mi South 11.5 mph 17.3 mph N/A   Overcast
4:35 AM 68.0 °F 60.8 °F 78% 29.66 in 10.0 mi South 10.4 mph 27.6 mph N/A   Overcast
4:55 AM 69.8 °F 59.0 °F 68% 29.65 in 10.0 mi South 12.7 mph 26.5 mph N/A   Overcast
5:15 AM 69.8 °F 60.8 °F 73% 29.63 in 10.0 mi South 18.4 mph 25.3 mph N/A   Overcast
5:35 AM 69.8 °F 60.8 °F 73% 29.63 in 10.0 mi South 11.5 mph 18.4 mph N/A   Overcast
5:55 AM 69.8 °F 60.8 °F 73% 29.63 in 10.0 mi SSW 11.5 mph 21.9 mph N/A   Overcast
6:15 AM 69.8 °F 60.8 °F 73% 29.63 in 10.0 mi SSW 10.4 mph 23.0 mph N/A   Overcast
6:35 AM 69.8 °F 60.8 °F 73% 29.63 in 10.0 mi South 12.7 mph 26.5 mph N/A   Overcast
6:55 AM 69.8 °F 60.8 °F 73% 29.62 in 10.0 mi South 15.0 mph 24.2 mph N/A   Overcast
7:15 AM 69.8 °F 60.8 °F 73% 29.63 in 10.0 mi South 11.5 mph 24.2 mph N/A   Overcast
7:35 AM 68.0 °F 62.6 °F 83% 29.64 in 10.0 mi SSW 9.2 mph 19.6 mph 0.01 in   Overcast
7:55 AM 68.0 °F 60.8 °F 78% 29.65 in 10.0 mi SW 8.1 mph - 0.01 in   Overcast
8:15 AM 64.4 °F 55.4 °F 73% 29.68 in 10.0 mi WNW 15.0 mph 27.6 mph N/A   Overcast
8:35 AM 60.8 °F 55.4 °F 82% 29.70 in 8.0 mi West 8.1 mph 21.9 mph 0.04 in   Overcast
8:55 AM 59.0 °F 55.4 °F 88% 29.71 in 7.0 mi West 8.1 mph - 0.08 in   Overcast
9:15 AM 59.0 °F 55.4 °F 88% 29.70 in 6.0 mi West 5.8 mph - 0.02 in   Overcast
9:35 AM 60.8 °F 57.2 °F 88% 29.70 in 9.0 mi SW 4.6 mph - 0.03 in   Overcast
9:55 AM 60.8 °F 57.2 °F 88% 29.69 in 10.0 mi SSW 3.5 mph - 0.03 in   Overcast
10:15 AM 60.8 °F 57.2 °F 88% 29.71 in 10.0 mi SSW 5.8 mph - N/A   Overcast
10:35 AM 60.8 °F 57.2 °F 88% 29.69 in 10.0 mi Calm Calm - N/A   Overcast
10:55 AM 62.6 °F 59.0 °F 88% 29.69 in 10.0 mi SSW 4.6 mph - N/A   Overcast
11:15 AM 62.6 °F 57.2 °F 82% 29.69 in 10.0 mi SW 3.5 mph - N/A   Overcast
11:35 AM 62.6 °F 57.2 °F 82% 29.68 in 10.0 mi SW 3.5 mph - N/A   Overcast
11:55 AM 64.4 °F 57.2 °F 77% 29.68 in 10.0 mi WSW 3.5 mph - N/A   Overcast
12:15 PM 64.4 °F 57.2 °F 77% 29.69 in 10.0 mi SW 4.6 mph - N/A   Overcast
12:35 PM 66.2 °F 57.2 °F 73% 29.68 in 10.0 mi SW 5.8 mph - N/A   Overcast
12:55 PM 66.2 °F 59.0 °F 78% 29.69 in 10.0 mi WSW 3.5 mph - N/A   Mostly Cloudy
1:15 PM 69.8 °F 59.0 °F 68% 29.68 in 10.0 mi SW 5.8 mph - N/A   Scattered Clouds
1:35 PM 69.8 °F 59.0 °F 68% 29.67 in 10.0 mi SSW 6.9 mph - N/A   Partly Cloudy
1:55 PM 69.8 °F 57.2 °F 64% 29.67 in 10.0 mi WSW 8.1 mph - N/A   Partly Cloudy
2:15 PM 69.8 °F 55.4 °F 60% 29.67 in 10.0 mi WSW 4.6 mph - N/A   Mostly Cloudy
2:35 PM 69.8 °F 55.4 °F 60% 29.66 in 10.0 mi SW 4.6 mph - N/A   Mostly Cloudy
2:55 PM 69.8 °F 55.4 °F 60% 29.64 in 10.0 mi WSW 3.5 mph - N/A   Partly Cloudy
3:15 PM 71.6 °F 53.6 °F 53% 29.65 in 10.0 mi WSW 3.5 mph - N/A   Clear
3:35 PM 71.6 °F 53.6 °F 53% 29.65 in 10.0 mi West 5.8 mph - N/A   Clear
3:55 PM 71.6 °F 55.4 °F 57% 29.65 in 10.0 mi SSW 3.5 mph - N/A   Clear
4:15 PM 71.6 °F 57.2 °F 60% 29.65 in 10.0 mi SW 3.5 mph - N/A   Clear
4:35 PM 71.6 °F 55.4 °F 57% 29.65 in 10.0 mi SW 3.5 mph - N/A   Clear
4:55 PM 71.6 °F 53.6 °F 53% 29.65 in 10.0 mi Calm Calm - N/A   Clear
5:15 PM 71.6 °F 53.6 °F 53% 29.65 in 10.0 mi SSE 4.6 mph - N/A   Clear
5:35 PM 69.8 °F 53.6 °F 56% 29.65 in 10.0 mi SSE 4.6 mph - N/A   Clear
5:55 PM 69.8 °F 53.6 °F 56% 29.65 in 10.0 mi Calm Calm - N/A   Clear
6:15 PM 66.2 °F 51.8 °F 60% 29.66 in 10.0 mi SE 6.9 mph - N/A   Clear
6:35 PM 64.4 °F 53.6 °F 68% 29.66 in 10.0 mi SE 6.9 mph - N/A   Clear
6:55 PM 64.4 °F 57.2 °F 77% 29.66 in 10.0 mi SE 5.8 mph - N/A   Clear
7:15 PM 62.6 °F 57.2 °F 82% 29.67 in 10.0 mi SE 5.8 mph - N/A   Clear
7:35 PM 62.6 °F 57.2 °F 82% 29.67 in 10.0 mi SSE 4.6 mph - N/A   Clear
7:55 PM 60.8 °F 55.4 °F 82% 29.68 in 10.0 mi Calm Calm - N/A   Clear
8:15 PM 59.0 °F 55.4 °F 88% 29.68 in 10.0 mi Calm Calm - N/A   Clear
8:35 PM 59.0 °F 55.4 °F 88% 29.69 in 10.0 mi Calm Calm - N/A   Clear
8:55 PM 57.2 °F 55.4 °F 94% 29.69 in 10.0 mi SE 3.5 mph - N/A   Clear
9:15 PM 57.2 °F 53.6 °F 88% 29.69 in 10.0 mi Calm Calm - N/A   Clear
9:35 PM 57.2 °F 53.6 °F 88% 29.70 in 10.0 mi Calm Calm - N/A   Clear
9:55 PM 57.2 °F 53.6 °F 88% 29.70 in 10.0 mi Calm Calm - N/A   Scattered Clouds
10:15 PM 57.2 °F 55.4 °F 94% 29.70 in 10.0 mi Calm Calm - N/A   Scattered Clouds
10:35 PM 55.4 °F 51.8 °F 88% 29.69 in 10.0 mi Calm Calm - N/A   Clear
10:55 PM 55.4 °F 53.6 °F 94% 29.69 in 2.0 mi Calm Calm - N/A   Clear
11:15 PM 55.4 °F 53.6 °F 94% 29.69 in 0.8 mi Calm Calm - N/A   Unknown
11:35 PM 55.4 °F 53.6 °F 94% 29.69 in 5.0 mi Calm Calm - N/A   Clear
11:55 PM 55.4 °F 53.6 °F 94% 29.69 in 5.0 mi Calm Calm - N/A   Clear